Location: Julian California
(33.0790°N, 116.6010°W)
Time: 00:05:52
(UTC-08:00)

Cosmos 2074 Rocket - Pass Details

Date: 19 May 2017
Orbit: 968 x 985 km, 82.9° (Epoch: 20 November)

Event Time Altitude Azimuth Distance (km) Brightness Sun altitude
Rises 21:58:41 0° 351° (N) 3,670 7.9 -24.0°
Reaches altitude 10° 22:01:12 10° 350° (N) 2,722 7.1 -24.4°
Maximum altitude 22:07:25 76° 267° (W) 1,006 4.0 -25.2°
Enters shadow 22:09:27 45° 192° (SSW) 1,305 4.3 -25.5°
